Regional Weather Roundup
Issued by NWS

Home | Current Version | Previous Version | Graphics & Text | Print | Product List | Glossary On
Versions: 1 2 3 4 5 6 7 8 9 10 11 12 13 14 15 16 17 18 19 20 21 22 23 24 25 26 27 28 29 30 31 32 33 34 35 36 37 38 39 40 41 42 43 44 45 46 47 48 49 50
538
ASUS44 KMEG 221610
RWRTN
TENNESSEE HOURLY STATE WEATHER ROUNDUP
NATIONAL WEATHER SERVICE MEMPHIS TN
1100 AM CDT FRI SEP 22 2017

TNZ002-004-019-021-049-052-054-088>092-221700-
WEST TENNESSEE

CITY           SKY/WX    TMP DP  RH WIND       PRES   REMARKS
MEMPHIS INTL   SUNNY     86  69  56 CALM      30.06F HX  90
NWS MEMPHIS      N/A     85 N/A N/A MISG        N/A
JACKSON        SUNNY     85  74  69 VRB5      30.08S HX  92
DYERSBURG      SUNNY     85  72  65 E3        30.08F HX  91
SOMERVILLE     SUNNY     84  72  65 CALM      30.06F
COVINGTON      SUNNY     84  72  65 E3        30.07F
BOLIVAR        SUNNY     84  72  65 E6        30.06F
PARIS          SUNNY     84  68  58 E8        30.08S
HUNTINGDON     SUNNY     84  72  65 VRB5      30.07F
LEXINGTON      SUNNY     84  72  65 CALM      30.08S
SAVANNAH       SUNNY     82  73  74 CALM      30.06F
$$

TNZ008-025-027-028-033-062-065-066-221700-
NORTH MIDDLE TENNESSEE

CITY           SKY/WX    TMP DP  RH WIND       PRES   REMARKS
NASHVILLE      SUNNY     85  70  60 CALM      30.09F
PORTLAND       SUNNY     82  68  61 NE6       30.09F
CLARKSVILLE    SUNNY     83  68  60 E5        30.09S
SMYRNA         SUNNY     84  70  63 CALM      30.10S
COOKEVILLE     SUNNY     82  68  61 VRB5      30.10F
GALLATIN       SUNNY     82  70  65 CALM      30.11F
CROSSVILLE     SUNNY     78  65  63 VRB5      30.16S
$$

TNZ061-075-076-078-094-096-097-221700-
SOUTH MIDDLE TENNESSEE

CITY           SKY/WX    TMP DP  RH WIND       PRES   REMARKS
FAYETTEVILLE   SUNNY     81  70  69 SW5       30.09F
TULLAHOMA      SUNNY     81  66  61 CALM      30.12S
WINCHESTER     SUNNY     84  68  58 CALM      30.10S
MCMINNVILLE    SUNNY     82  72  69 W3        30.11S
COLUMBIA       SUNNY     82 N/A N/A CALM      30.07F
SHELBYVILLE    SUNNY     82  68  61 E3        30.09F
$$

TNZ017-018-042-046-047-221700-
NORTHEAST TENNESSEE

CITY           SKY/WX    TMP DP  RH WIND       PRES   REMARKS
TRI CITIES     MOSUNNY   80  65  59 CALM      30.15F
ELIZABETHTON   SUNNY     81  63  54 CALM      30.15F
$$

TNZ012-013-036-069-073-074-221700-
CENTRAL EAST TENNESSEE

CITY           SKY/WX    TMP DP  RH WIND       PRES   REMARKS
KNOXVILLE      MOSUNNY   81  65  58 CALM      30.11F
OAK RIDGE      SUNNY     81  65  58 CALM      30.13F
DOWNTOWN KNOXV SUNNY     79  68  69 CALM      30.11S
GATLINBURG     SUNNY     82  63  51 VRB5      30.11S
MORRISTOWN     SUNNY     82  64  54 CALM      30.12S
JACKSBORO      SUNNY     79  66  65 NE6       30.16F
$$

TNZ083-085-099-221700-
SOUTHEAST TENNESSEE

CITY           SKY/WX    TMP DP  RH WIND       PRES   REMARKS
CHATTANOOGA    SUNNY     82  67  60 N3        30.10F
DAYTON         SUNNY     81  72  74 CALM      30.10S
$$

SKY/WX REPORTED AS FAIR MEANS FEW OR NO CLOUDS BELOW
12 THOUSAND FEET.





USA.gov is the U.S. government's official web portal to all federal, state and local government web resources and services.